MAU845 FIMP-FALE

Flight info

Callsign MAU845
Flight time N/A
Altitude 40000
Route PASAR2A PASAR UA402 APLUK DCT ITMIL ITMIL1A
Aircraft A359/H-SDE2E3GHIJ1J3J4J5LM1ORWXY/LB1D1

Departure

Time 2026-05-04 10:46
Airport Sir Seewoosagur Ramgoolam International Airport (FIMP)

Arrival

Time N/A
Airport King Shaka International Airport (FALE)
Time Latitude Longitude Altitude Speed Heading
2026-05-04 10:25 -20.43260 57.67956 193 ft 0 kts 237°
2026-05-04 10:36 -20.43259 57.67959 192 ft 3 kts 237°
2026-05-04 10:36 -20.43245 57.67982 208 ft 4 kts 237°
2026-05-04 10:36 -20.43230 57.68006 207 ft 4 kts 237°
2026-05-04 10:37 -20.43220 57.68027 205 ft 4 kts 270°
2026-05-04 10:37 -20.43228 57.68051 207 ft 4 kts 317°
2026-05-04 10:37 -20.43245 57.68064 207 ft 4 kts 329°
2026-05-04 10:37 -20.43266 57.68076 207 ft 1 kts 335°
2026-05-04 10:41 -20.43192 57.68026 207 ft 16 kts 323°
2026-05-04 10:42 -20.43112 57.67938 207 ft 17 kts 311°
2026-05-04 10:42 -20.43048 57.67831 204 ft 18 kts 297°
2026-05-04 10:42 -20.42990 57.67712 207 ft 19 kts 297°
2026-05-04 10:42 -20.42901 57.67618 202 ft 19 kts 328°
2026-05-04 10:43 -20.42783 57.67533 208 ft 21 kts 323°
2026-05-04 10:44 -20.42383 57.67027 220 ft 11 kts 110°
2026-05-04 10:45 -20.42398 57.67060 215 ft 0 kts 118°
2026-05-04 10:45 -20.42466 57.67198 211 ft 53 kts 116°
2026-05-04 10:45 -20.42729 57.67750 208 ft 112 kts 116°
2026-05-04 10:46 -20.43163 57.68647 237 ft 154 kts 118°
2026-05-04 10:46 -20.43655 57.69684 681 ft 159 kts 117°
2026-05-04 10:46 -20.44264 57.70714 1079 ft 172 kts 133°
2026-05-04 10:46 -20.45318 57.71315 1563 ft 183 kts 168°
2026-05-04 10:47 -20.46624 57.71021 1755 ft 211 kts 211°
2026-05-04 10:47 -20.47825 57.69958 1976 ft 238 kts 222°
2026-05-04 10:47 -20.48984 57.68745 2014 ft 227 kts 222°
2026-05-04 10:47 -20.50073 57.67610 2116 ft 209 kts 221°
2026-05-04 10:49 -20.58878 57.58876 5623 ft 267 kts 220°
2026-05-04 10:49 -20.60265 57.57509 6317 ft 270 kts 220°
2026-05-04 10:50 -20.61633 57.56163 6982 ft 272 kts 220°
2026-05-04 10:51 -20.67949 57.43011 10945 ft 327 kts 250°
2026-05-04 10:52 -20.68726 57.40664 11196 ft 342 kts 249°
2026-05-04 10:52 -20.69533 57.38234 11595 ft 350 kts 249°
2026-05-04 10:52 -20.70350 57.35769 12119 ft 354 kts 249°
2026-05-04 10:54 -20.76236 57.18015 15476 ft 369 kts 249°
2026-05-04 10:54 -20.77094 57.15421 15920 ft 371 kts 249°
2026-05-04 10:56 -20.83212 56.96892 18881 ft 386 kts 249°
2026-05-04 10:56 -20.84105 56.94181 19241 ft 388 kts 249°
2026-05-04 10:56 -20.85003 56.91453 19615 ft 390 kts 249°
2026-05-04 10:57 -20.85907 56.88706 20006 ft 393 kts 249°
2026-05-04 10:57 -20.86814 56.85947 20399 ft 395 kts 249°
2026-05-04 10:57 -20.87727 56.83166 20810 ft 397 kts 249°
2026-05-04 10:57 -20.88645 56.80371 21198 ft 400 kts 249°
2026-05-04 10:58 -20.89568 56.77558 21604 ft 402 kts 249°
2026-05-04 10:58 -20.90496 56.74728 22012 ft 405 kts 249°
2026-05-04 10:58 -20.91431 56.71876 22404 ft 407 kts 249°
2026-05-04 10:58 -20.92369 56.69015 22818 ft 410 kts 249°
2026-05-04 10:59 -20.93314 56.66125 23221 ft 412 kts 249°
2026-05-04 10:59 -20.94265 56.63221 23621 ft 415 kts 249°
2026-05-04 10:59 -20.95220 56.60300 23969 ft 418 kts 249°
2026-05-04 10:59 -20.96180 56.57361 24321 ft 420 kts 249°
2026-05-04 11:00 -20.97148 56.54396 24675 ft 423 kts 249°
2026-05-04 11:01 -21.04326 56.34485 27188 ft 439 kts 243°
2026-05-04 11:02 -21.06155 56.30601 27658 ft 443 kts 242°
2026-05-04 11:02 -21.07555 56.27659 28006 ft 446 kts 242°
2026-05-04 11:05 -21.27135 55.85630 32254 ft 473 kts 244°
2026-05-04 11:06 -21.28599 55.82468 32511 ft 475 kts 244°
2026-05-04 11:06 -21.30067 55.79293 32752 ft 476 kts 244°
2026-05-04 11:06 -21.31540 55.76106 32989 ft 477 kts 244°
2026-05-04 11:06 -21.33014 55.72913 33198 ft 479 kts 244°
2026-05-04 11:08 -21.43264 55.50666 35428 ft 467 kts 244°
2026-05-04 11:10 -21.53161 55.29097 37222 ft 456 kts 245°
2026-05-04 11:12 -21.62894 55.07794 38520 ft 450 kts 245°